Time,TemperatureF,DewpointF,PressureIn,WindDirection,WindDirectionDegrees,WindSpeedMPH,WindSpeedGustMPH,Humidity,HourlyPrecipIn,Conditions,Clouds,dailyrainin,SoftwareType,DateUTC
2013-04-25 00:11:00,64.1,63.0,30.12,SE,142,0.0,0.0,96,0.00,,,0.00,weatherlink.com 1.10,2013-04-25 05:11:00,
2013-04-25 00:27:00,64.2,63.0,30.12,NW,318,0.0,2.0,96,0.00,,,0.00,weatherlink.com 1.10,2013-04-25 05:27:00,
2013-04-25 00:42:00,64.2,63.0,30.12,NE,35,0.0,1.0,96,0.00,,,0.00,weatherlink.com 1.10,2013-04-25 05:42:00,
2013-04-25 00:58:00,64.2,63.0,30.11,North,1,0.0,4.0,96,0.00,,,0.00,weatherlink.com 1.10,2013-04-25 05:58:00,
2013-04-25 01:12:00,64.0,63.0,30.11,NNW,328,3.0,3.0,96,0.00,,,0.00,weatherlink.com 1.10,2013-04-25 06:12:00,
2013-04-25 01:27:00,64.0,63.0,30.11,NNW,342,0.0,3.0,96,0.00,,,0.00,weatherlink.com 1.10,2013-04-25 06:27:00,
2013-04-25 01:42:00,63.8,63.0,30.11,NNW,330,3.0,4.0,96,0.00,,,0.00,weatherlink.com 1.10,2013-04-25 06:42:00,
2013-04-25 01:57:00,63.7,63.0,30.11,NW,321,2.0,5.0,96,0.00,,,0.00,weatherlink.com 1.10,2013-04-25 06:57:00,
2013-04-25 02:12:00,63.5,62.0,30.11,NNE,14,0.0,4.0,96,0.00,,,0.00,weatherlink.com 1.10,2013-04-25 07:12:00,
2013-04-25 02:27:00,63.2,62.0,30.11,North,355,0.0,2.0,96,0.00,,,0.00,weatherlink.com 1.10,2013-04-25 07:27:00,
2013-04-25 02:42:00,62.8,62.0,30.11,NW,319,0.0,4.0,96,0.00,,,0.00,weatherlink.com 1.10,2013-04-25 07:42:00,
2013-04-25 02:57:00,62.6,62.0,30.12,NNW,328,1.0,4.0,96,0.00,,,0.00,weatherlink.com 1.10,2013-04-25 07:57:00,
2013-04-25 03:12:00,62.4,61.0,30.12,NW,323,2.0,5.0,96,0.00,,,0.00,weatherlink.com 1.10,2013-04-25 08:12:00,
2013-04-25 03:27:00,62.0,61.0,30.12,WNW,285,3.0,5.0,95,0.00,,,0.00,weatherlink.com 1.10,2013-04-25 08:27:00,
2013-04-25 03:42:00,61.3,60.0,30.12,NW,323,2.0,6.0,95,0.00,,,0.00,weatherlink.com 1.10,2013-04-25 08:42:00,
2013-04-25 03:57:00,60.8,59.0,30.13,North,349,0.0,4.0,95,0.00,,,0.00,weatherlink.com 1.10,2013-04-25 08:57:00,
2013-04-25 04:12:00,60.1,59.0,30.13,North,9,2.0,6.0,95,0.00,,,0.00,weatherlink.com 1.10,2013-04-25 09:12:00,
2013-04-25 04:27:00,59.6,58.0,30.13,North,10,0.0,5.0,95,0.00,,,0.00,weatherlink.com 1.10,2013-04-25 09:27:00,
2013-04-25 04:42:00,59.5,58.0,30.13,NE,50,0.0,2.0,96,0.00,,,0.00,weatherlink.com 1.10,2013-04-25 09:42:00,
2013-04-25 04:57:00,59.5,58.0,30.14,North,354,0.0,5.0,95,0.00,,,0.00,weatherlink.com 1.10,2013-04-25 09:57:00,
2013-04-25 05:12:00,59.5,58.0,30.14,NW,315,3.0,3.0,96,0.00,,,0.00,weatherlink.com 1.10,2013-04-25 10:12:00,
2013-04-25 05:27:00,59.5,58.0,30.15,NNW,333,4.0,6.0,95,0.00,,,0.00,weatherlink.com 1.10,2013-04-25 10:27:00,
2013-04-25 05:42:00,59.4,58.0,30.15,North,354,1.0,6.0,95,0.00,,,0.00,weatherlink.com 1.10,2013-04-25 10:42:00,
2013-04-25 05:57:00,59.1,58.0,30.16,NNW,331,0.0,5.0,95,0.00,,,0.00,weatherlink.com 1.10,2013-04-25 10:57:00,
2013-04-25 06:12:00,58.8,57.0,30.17,NW,316,1.0,6.0,95,0.00,,,0.00,weatherlink.com 1.10,2013-04-25 11:12:00,
2013-04-25 06:27:00,58.5,57.0,30.17,North,354,1.0,5.0,94,0.00,,,0.00,weatherlink.com 1.10,2013-04-25 11:27:00,
2013-04-25 06:42:00,58.4,57.0,30.18,NNW,345,1.0,3.0,94,0.00,,,0.00,weatherlink.com 1.10,2013-04-25 11:42:00,
2013-04-25 06:57:00,58.2,56.0,30.18,NNW,328,3.0,7.0,93,0.00,,,0.00,weatherlink.com 1.10,2013-04-25 11:57:00,
2013-04-25 07:12:00,58.0,56.0,30.19,WNW,293,0.0,7.0,93,0.00,,,0.00,weatherlink.com 1.10,2013-04-25 12:12:00,
2013-04-25 07:27:00,57.9,56.0,30.19,NNW,341,0.0,5.0,93,0.00,,,0.00,weatherlink.com 1.10,2013-04-25 12:27:00,
2013-04-25 07:42:00,58.1,56.0,30.19,NNE,20,0.0,4.0,93,0.00,,,0.00,weatherlink.com 1.10,2013-04-25 12:42:00,
2013-04-25 07:57:00,58.4,56.0,30.20,NNW,331,5.0,8.0,92,0.00,,,0.00,weatherlink.com 1.10,2013-04-25 12:57:00,
2013-04-25 08:12:00,58.5,56.0,30.20,NW,323,3.0,8.0,91,0.00,,,0.00,weatherlink.com 1.10,2013-04-25 13:12:00,
2013-04-25 08:27:00,59.0,56.0,30.20,NNE,13,2.0,8.0,91,0.00,,,0.00,weatherlink.com 1.10,2013-04-25 13:27:00,
2013-04-25 08:43:00,59.8,57.0,30.21,NW,304,2.0,5.0,91,0.00,,,0.00,weatherlink.com 1.10,2013-04-25 13:43:00,
2013-04-25 08:58:00,59.9,57.0,30.22,NW,316,0.0,7.0,89,0.00,,,0.00,weatherlink.com 1.10,2013-04-25 13:58:00,
2013-04-25 09:13:00,60.2,57.0,30.22,WNW,296,3.0,6.0,88,0.00,,,0.00,weatherlink.com 1.10,2013-04-25 14:13:00,
2013-04-25 09:28:00,60.4,57.0,30.23,NNE,28,2.0,5.0,88,0.00,,,0.00,weatherlink.com 1.10,2013-04-25 14:28:00,
2013-04-25 09:43:00,62.4,59.0,30.24,SSW,195,0.0,5.0,87,0.00,,,0.00,weatherlink.com 1.10,2013-04-25 14:43:00,
2013-04-25 09:58:00,64.6,59.0,30.24,SW,228,2.0,4.0,83,0.00,,,0.00,weatherlink.com 1.10,2013-04-25 14:58:00,
2013-04-25 10:13:00,66.6,60.0,30.25,WSW,243,1.0,2.0,78,0.00,,,0.00,weatherlink.com 1.10,2013-04-25 15:13:00,
2013-04-25 10:28:00,66.1,59.0,30.25,East,100,0.0,5.0,79,0.00,,,0.00,weatherlink.com 1.10,2013-04-25 15:28:00,
2013-04-25 10:43:00,67.5,60.0,30.24,SSW,205,2.0,5.0,76,0.00,,,0.00,weatherlink.com 1.10,2013-04-25 15:43:00,
2013-04-25 10:58:00,68.6,61.0,30.24,NNE,30,0.0,5.0,77,0.00,,,0.00,weatherlink.com 1.10,2013-04-25 15:58:00,
2013-04-25 11:13:00,70.3,62.0,30.24,ESE,108,0.0,7.0,76,0.00,,,0.00,weatherlink.com 1.10,2013-04-25 16:13:00,
2013-04-25 11:28:00,71.0,62.0,30.23,West,264,1.0,5.0,74,0.00,,,0.00,weatherlink.com 1.10,2013-04-25 16:28:00,
2013-04-25 11:43:00,70.2,62.0,30.23,NE,56,0.0,7.0,74,0.00,,,0.00,weatherlink.com 1.10,2013-04-25 16:43:00,
2013-04-25 11:58:00,70.4,61.0,30.23,NNE,33,3.0,8.0,73,0.00,,,0.00,weatherlink.com 1.10,2013-04-25 16:58:00,
2013-04-25 12:13:00,72.4,63.0,30.23,West,269,3.0,11.0,73,0.00,,,0.00,weatherlink.com 1.10,2013-04-25 17:13:00,
2013-04-25 12:28:00,72.5,63.0,30.22,NNW,348,1.0,8.0,72,0.00,,,0.00,weatherlink.com 1.10,2013-04-25 17:28:00,
2013-04-25 12:43:00,72.6,62.0,30.23,NE,42,5.0,8.0,69,0.00,,,0.00,weatherlink.com 1.10,2013-04-25 17:43:00,
2013-04-25 12:58:00,72.8,61.0,30.22,NNE,22,5.0,11.0,66,0.00,,,0.00,weatherlink.com 1.10,2013-04-25 17:58:00,
2013-04-25 13:13:00,73.3,60.0,30.22,NE,42,8.0,10.0,64,0.00,,,0.00,weatherlink.com 1.10,2013-04-25 18:13:00,
2013-04-25 13:28:00,74.2,60.0,30.22,North,11,1.0,8.0,62,0.00,,,0.00,weatherlink.com 1.10,2013-04-25 18:28:00,
2013-04-25 13:43:00,74.1,60.0,30.21,NE,55,2.0,7.0,61,0.00,,,0.00,weatherlink.com 1.10,2013-04-25 18:43:00,
2013-04-25 13:58:00,74.8,61.0,30.21,NE,41,1.0,9.0,62,0.00,,,0.00,weatherlink.com 1.10,2013-04-25 18:58:00,
2013-04-25 14:13:00,74.8,58.0,30.20,NW,307,3.0,9.0,57,0.00,,,0.00,weatherlink.com 1.10,2013-04-25 19:13:00,
2013-04-25 14:28:00,75.0,59.0,30.20,NNE,18,6.0,8.0,57,0.00,,,0.00,weatherlink.com 1.10,2013-04-25 19:28:00,
2013-04-25 14:43:00,74.8,58.0,30.20,WNW,290,2.0,7.0,57,0.00,,,0.00,weatherlink.com 1.10,2013-04-25 19:43:00,
2013-04-25 14:58:00,75.4,57.0,30.20,NW,318,2.0,9.0,54,0.00,,,0.00,weatherlink.com 1.10,2013-04-25 19:58:00,
2013-04-25 15:13:00,75.0,58.0,30.19,West,275,1.0,11.0,56,0.00,,,0.00,weatherlink.com 1.10,2013-04-25 20:13:00,
2013-04-25 15:28:00,76.0,59.0,30.19,NW,305,3.0,8.0,56,0.00,,,0.00,weatherlink.com 1.10,2013-04-25 20:28:00,
2013-04-25 15:43:00,76.4,58.0,30.19,North,350,5.0,7.0,54,0.00,,,0.00,weatherlink.com 1.10,2013-04-25 20:43:00,
2013-04-25 15:58:00,75.7,57.0,30.19,WSW,255,1.0,6.0,52,0.00,,,0.00,weatherlink.com 1.10,2013-04-25 20:58:00,
2013-04-25 16:13:00,75.2,56.0,30.20,NNW,345,0.0,6.0,52,0.00,,,0.00,weatherlink.com 1.10,2013-04-25 21:13:00,
2013-04-25 16:28:00,75.5,56.0,30.20,NNE,20,1.0,5.0,51,0.00,,,0.00,weatherlink.com 1.10,2013-04-25 21:28:00,
2013-04-25 16:43:00,75.5,55.0,30.20,NW,316,0.0,8.0,49,0.00,,,0.00,weatherlink.com 1.10,2013-04-25 21:43:00,
2013-04-25 16:58:00,74.9,54.0,30.20,NNW,336,0.0,5.0,49,0.00,,,0.00,weatherlink.com 1.10,2013-04-25 21:58:00,
2013-04-25 17:13:00,74.8,53.0,30.20,NNW,348,2.0,6.0,47,0.00,,,0.00,weatherlink.com 1.10,2013-04-25 22:13:00,
2013-04-25 17:29:00,74.4,52.0,30.20,NE,49,7.0,7.0,45,0.00,,,0.00,weatherlink.com 1.10,2013-04-25 22:29:00,
2013-04-25 17:44:00,74.0,49.0,30.20,WNW,297,1.0,9.0,42,0.00,,,0.00,weatherlink.com 1.10,2013-04-25 22:44:00,
2013-04-25 17:59:00,73.5,48.0,30.20,NW,315,2.0,7.0,40,0.00,,,0.00,weatherlink.com 1.10,2013-04-25 22:59:00,
2013-04-25 18:14:00,72.4,49.0,30.20,NNW,338,1.0,5.0,44,0.00,,,0.00,weatherlink.com 1.10,2013-04-25 23:14:00,
2013-04-25 18:29:00,71.2,49.0,30.21,West,266,1.0,4.0,45,0.00,,,0.00,weatherlink.com 1.10,2013-04-25 23:29:00,
2013-04-25 18:44:00,69.8,49.0,30.21,North,352,0.0,1.0,47,0.00,,,0.00,weatherlink.com 1.10,2013-04-25 23:44:00,
2013-04-25 18:59:00,67.5,51.0,30.21,West,277,0.0,0.0,55,0.00,,,0.00,weatherlink.com 1.10,2013-04-25 23:59:00,
2013-04-25 19:29:00,62.5,51.0,30.21,West,277,0.0,0.0,66,0.00,,,0.00,weatherlink.com 1.10,2013-04-26 00:29:00,
2013-04-25 19:44:00,60.4,50.0,30.22,West,277,0.0,0.0,69,0.00,,,0.00,weatherlink.com 1.10,2013-04-26 00:44:00,
2013-04-25 19:59:00,58.0,49.0,30.22,West,277,0.0,0.0,73,0.00,,,0.00,weatherlink.com 1.10,2013-04-26 00:59:00,
2013-04-25 20:14:00,56.4,49.0,30.23,West,277,0.0,0.0,75,0.00,,,0.00,weatherlink.com 1.10,2013-04-26 01:14:00,
2013-04-25 20:29:00,55.6,48.0,30.23,West,277,0.0,0.0,75,0.00,,,0.00,weatherlink.com 1.10,2013-04-26 01:29:00,
2013-04-25 20:44:00,54.5,48.0,30.23,West,277,0.0,0.0,79,0.00,,,0.00,weatherlink.com 1.10,2013-04-26 01:44:00,
2013-04-25 20:59:00,53.7,48.0,30.23,West,277,0.0,0.0,82,0.00,,,0.00,weatherlink.com 1.10,2013-04-26 01:59:00,
2013-04-25 21:14:00,53.0,48.0,30.24,West,277,0.0,0.0,83,0.00,,,0.00,weatherlink.com 1.10,2013-04-26 02:14:00,
2013-04-25 21:29:00,51.9,47.0,30.25,West,277,0.0,0.0,84,0.00,,,0.00,weatherlink.com 1.10,2013-04-26 02:29:00,
2013-04-25 21:44:00,52.1,48.0,30.25,West,278,0.0,0.0,86,0.00,,,0.00,weatherlink.com 1.10,2013-04-26 02:44:00,
2013-04-25 21:59:00,51.6,48.0,30.25,West,278,0.0,0.0,86,0.00,,,0.00,weatherlink.com 1.10,2013-04-26 02:59:00,
2013-04-25 22:14:00,50.9,48.0,30.25,West,278,0.0,0.0,90,0.00,,,0.00,weatherlink.com 1.10,2013-04-26 03:14:00,
2013-04-25 22:29:00,50.4,48.0,30.25,West,278,0.0,0.0,91,0.00,,,0.00,weatherlink.com 1.10,2013-04-26 03:29:00,
2013-04-25 22:44:00,50.3,48.0,30.25,West,278,0.0,0.0,91,0.00,,,0.00,weatherlink.com 1.10,2013-04-26 03:44:00,
2013-04-25 22:59:00,50.0,48.0,30.25,West,278,0.0,0.0,92,0.00,,,0.00,weatherlink.com 1.10,2013-04-26 03:59:00,
2013-04-25 23:14:00,50.1,48.0,30.24,West,278,0.0,0.0,93,0.00,,,0.00,weatherlink.com 1.10,2013-04-26 04:14:00,
2013-04-25 23:29:00,49.2,47.0,30.25,West,277,0.0,0.0,93,0.00,,,0.00,weatherlink.com 1.10,2013-04-26 04:29:00,
2013-04-25 23:44:00,49.5,47.0,30.25,West,278,0.0,0.0,91,0.00,,,0.00,weatherlink.com 1.10,2013-04-26 04:44:00,
2013-04-25 23:59:00,49.7,47.0,30.24,North,359,0.0,0.0,89,0.00,,,0.00,weatherlink.com 1.10,2013-04-26 04:59:00,